Location: Richterswil
(47.2055°N, 8.7071°E)
Time: 00:43:49
(UTC+00:00)

Daily predictions for brighter satellites

Satellite Brightness Start Highest point End
(mag) Time Altitude Azimuth Time Altitude Azimuth Time Altitude Azimuth
STARLINK-1268 4.1 00:04:29 32° E 00:04:29 32° E 00:06:28 10° ENE
STARLINK-1301 3.7 00:03:56 48° SE 00:03:56 48° SE 00:07:34 10° ENE
STARLINK-1303 3.7 00:05:53 47° SE 00:05:53 47° SE 00:09:19 10° ENE
STARLINK-66 3.0 00:07:08 68° E 00:07:08 68° E 00:10:04 10° ENE
Cosmos 1570 Rocket 4.0 00:04:53 38° S 00:06:55 75° ESE 00:12:12 10° NNE
Cosmos 1400 Rocket 4.1 00:03:13 10° N 00:07:05 37° ENE 00:09:10 22° SE
Cosmos 1709 Rocket 3.9 00:05:05 33° S 00:08:00 81° E 00:14:14 10° N
Cosmos 1763 Rocket 3.5 00:05:57 35° SW 00:08:04 69° WNW 00:13:08 10° NNE
STARLINK-1316 3.7 00:09:24 39° E 00:09:24 39° E 00:11:40 10° ENE
Cosmos 2227 Rocket 3.0 00:03:33 10° NW 00:08:40 35° WSW 00:10:10 30° SW
STARLINK-1312 3.6 00:09:13 50° SE 00:09:13 50° SE 00:12:50 10° ENE
STARLINK-1257 3.7 00:10:14 41° E 00:10:14 41° E 00:12:34 10° ENE
STARLINK-1256 3.6 00:11:11 41° E 00:11:11 41° E 00:13:32 10° ENE
STARLINK-58 4.2 00:11:42 30° ESE 00:11:42 30° ESE 00:13:47 10° ENE
STARLINK-1213 3.6 00:12:02 42° E 00:12:02 42° E 00:14:25 10° ENE
STARLINK-1263 3.5 00:12:53 44° E 00:12:53 44° E 00:15:19 10° ENE
Cosmos 2084 Rocket 3.4 00:08:37 10° NW 00:13:05 79° SW 00:14:58 35° SSE
STARLINK-1259 3.5 00:13:47 45° E 00:13:47 45° E 00:16:15 10° ENE
STARLINK-1265 3.4 00:14:09 47° ESE 00:14:09 47° ESE 00:16:41 10° ENE
STARLINK-1285 3.4 00:14:38 47° E 00:14:38 47° E 00:17:08 10° ENE
STARLINK-1296 3.3 00:16:22 50° ESE 00:16:22 50° ESE 00:18:57 10° ENE
Cosmos 2298 Rocket 4.5 00:10:44 10° NNW 00:16:00 60° ENE 00:19:50 19° SE
SL-16 R/B 3.5 00:10:27 10° SE 00:16:14 44° ENE 00:22:02 10° N
STARLINK-1260 3.3 00:17:14 51° ESE 00:17:14 51° ESE 00:19:51 10° ENE
Cosmos 1758 Rocket 3.5 00:15:28 45° S 00:16:49 90° NW 00:21:17 10° N
STARLINK-1318 3.2 00:18:06 53° ESE 00:18:06 53° ESE 00:20:46 10° ENE
STARLINK-75 2.8 00:18:02 82° S 00:18:05 82° SSE 00:21:19 10° ENE
STARLINK-1275 3.2 00:18:59 55° ESE 00:18:59 55° ESE 00:21:40 10° ENE
STARLINK-48 4.4 00:19:05 33° SE 00:19:05 33° SE 00:22:25 10° ENE
STARLINK-1309 3.1 00:19:50 56° ESE 00:19:50 56° ESE 00:22:33 10° ENE
STARLINK-1282 3.1 00:20:42 58° ESE 00:20:42 58° ESE 00:23:27 10° ENE
STARLINK-1283 3.5 00:20:03 49° SSW 00:20:57 67° SE 00:25:03 10° ENE
IRAS Rocket 4.3 00:18:06 26° SSE 00:21:22 80° ENE 00:26:55 10° NNW
STARLINK-1313 2.8 00:21:38 70° ESE 00:21:38 70° ESE 00:24:35 10° ENE
STARLINK-80 3.3 00:21:07 57° S 00:21:37 65° SSE 00:25:24 10° ENE
STARLINK-1279 2.8 00:22:33 72° ESE 00:22:33 72° ESE 00:25:31 10° ENE
CZ-4 R/B 4.1 00:18:19 10° N 00:22:58 56° WNW 00:24:50 33° SW
STARLINK-1298 2.9 00:23:16 63° ESE 00:23:16 63° ESE 00:26:07 10° ENE
STARLINK-1293 2.9 00:24:09 66° ESE 00:24:09 66° ESE 00:27:04 10° ENE
SL-16 R/B 3.7 00:22:44 17° SE 00:25:37 25° ESE 00:30:07 10° NE
STARLINK-1255 2.8 00:25:54 69° ESE 00:25:54 69° ESE 00:28:53 10° ENE
Cosmos 2208 Rocket 4.0 00:23:37 35° SSW 00:25:54 89° ESE 00:31:19 10° NNE
STARLINK-22 2.8 00:26:16 77° S 00:26:20 77° SSE 00:29:33 10° ENE
STARLINK-1297 3.2 00:26:32 60° S 00:26:55 65° SSE 00:30:30 10° ENE
STARLINK 1040 4.1 00:26:21 27° NW 00:27:02 32° NNW 00:29:24 10° NE
STARLINK-1444 4.4 00:25:54 10° NW 00:26:52 20° NW 00:26:52 20° NW
STARLINK-1311 2.6 00:28:27 80° ENE 00:28:27 80° ENE 00:31:17 10° ENE
Cosmos 2285 Rocket 4.1 00:22:27 10° NNW 00:28:43 61° WSW 00:31:55 29° S
CZ-2D R/B 3.2 00:27:17 10° NNE 00:32:04 35° E 00:35:02 20° SSE
MOZ.5/SAFIR/RUBIN 5/SL-8 4.2 00:29:15 22° SE 00:32:09 58° ENE 00:36:44 10° N
USA 81 4.2 00:30:17 33° SSW 00:32:34 65° W 00:37:50 10° N
Cosmos-2242 3.0 00:28:50 10° NNW 00:33:04 67° W 00:34:23 41° SSW
Meteor 2-10 Rocket 3.9 00:28:39 10° NNW 00:33:31 45° W 00:35:15 32° SW
USA 215 3.3 00:28:07 13° SSE 00:33:51 56° SW 00:40:18 10° WNW
Cosmos 1953 Rocket 3.5 00:33:32 38° S 00:35:11 79° E 00:39:36 10° NNE
Cosmos 2221 4.1 00:31:54 10° N 00:35:48 30° ENE 00:39:28 11° SE
STARLINK-42 3.0 00:36:26 49° W 00:37:07 69° NNW 00:40:13 10° ENE
BREEZE-M R/B 3.4 00:31:14 10° W 00:37:15 63° N 00:40:25 10° ENE
STARLINK-1029 3.2 00:39:04 50° SE 00:39:04 50° SE 00:42:01 10° ENE
STARLINK-34 2.7 00:40:02 69° SSE 00:40:03 69° SSE 00:43:07 10° ENE
STARLINK-60 3.2 00:37:21 10° WNW 00:40:32 69° NNE 00:43:43 10° ESE
STARLINK-41 3.0 00:40:11 48° W 00:40:49 67° NNW 00:43:53 10° ENE
GP-B 3.4 00:36:24 10° N 00:40:50 63° E 00:42:58 29° SSE
CZ-4C R/B 4.0 00:38:35 22° SE 00:41:19 59° ENE 00:45:43 10° N
Cosmos 1315 Rocket 4.3 00:39:04 10° N 00:42:38 32° ENE 00:45:45 13° SE
STARLINK-1272 3.1 00:42:02 47° WSW 00:42:58 88° SE 00:46:32 10° ENE
Cosmos 540 Rocket 3.6 00:41:07 31° SW 00:43:34 67° WNW 00:48:41 10° NNE
STARLINK-62 2.6 00:43:45 72° S 00:43:54 74° SSE 00:46:57 10° ENE
Cosmos 2360 Rocket 4.3 00:44:43 10° SE 00:48:04 16° E 00:51:26 10° ENE
STARLINK-1307 3.2 00:46:48 38° WSW 00:48:07 89° NNW 00:51:52 10° ENE
Helios 1B rocket 3.7 00:45:01 10° N 00:48:41 31° WNW 00:50:24 22° WSW
STARLINK-1290 3.3 00:50:11 35° WSW 00:51:39 85° NNW 00:55:23 10° ENE
Cosmos 1980 Rocket 2.4 00:51:50 26° SW 00:55:00 67° WNW 01:00:40 10° NNE
Cosmos 2074 Rocket 4.1 00:51:22 24° S 00:55:22 75° E 01:01:40 10° NNE
Meteor 1-29 4.2 00:54:20 10° N 00:57:17 29° WNW 00:58:11 25° W
STARLINK-1305 4.4 00:57:04 31° SSE 00:58:01 35° SE 01:01:48 10° ENE
STARLINK-1306 4.4 00:57:24 32° S 00:58:27 37° SE 01:02:21 10° ENE
STARLINK-1317 3.5 00:56:33 26° WSW 00:58:38 76° NNW 01:02:33 10° ENE
Cosmos 1455 3.7 00:56:44 10° NW 00:59:34 21° W 01:00:05 20° W
CZ-4B R/B 4.3 00:55:56 10° NNE 01:00:59 46° E 01:04:34 19° SSE
STARLINK-55 3.9 01:00:33 19° W 01:02:34 45° NNW 01:05:41 10° NE
STARLINK-1274 3.4 01:00:55 28° WSW 01:02:39 70° NNW 01:06:12 10° ENE
STARLINK-1262 4.3 01:01:53 31° S 01:03:00 38° SE 01:06:52 10° ENE
STARLINK-1291 3.5 01:04:15 24° WSW 01:06:21 69° NNW 01:10:05 10° ENE
Meteor 1-11 4.2 01:03:54 27° SSW 01:07:04 72° WNW 01:12:41 10° N
Cosmos 1703 4.5 01:05:53 24° WSW 01:07:17 30° WNW 01:10:48 10° N
Lacrosse 4 Rocket 3.6 01:06:06 10° W 01:07:20 12° W 01:07:20 12° W
STARLINK-1300 4.2 01:06:40 31° S 01:07:57 41° SE 01:11:52 10° ENE
STARLINK-1264 3.6 01:07:26 22° WSW 01:09:41 66° NNW 01:13:25 10° ENE
ADEOS II 3.5 01:05:27 10° NNE 01:10:06 31° E 01:14:39 10° SSE
Cosmos 2263 Rocket 2.1 01:05:26 10° NNW 01:11:02 75° WSW 01:15:58 13° SSE
STARLINK-1295 4.1 01:11:26 31° S 01:12:54 44° SE 01:16:51 10° ENE
STARLINK-1267 3.7 01:10:40 21° WSW 01:13:03 63° NNW 01:16:46 10° ENE
NOSS 2-1 (C) 3.3 01:12:04 34° S 01:13:12 53° SE 01:16:42 10° NE
STARLINK-29 3.3 01:10:07 10° WNW 01:13:19 67° NNE 01:16:30 10° ESE
STARLINK-28 4.3 01:11:33 13° W 01:14:09 38° NNW 01:17:12 10° NE
UNK 3.6 01:11:41 23° S 01:14:34 76° WSW 01:19:10 10° NNW
SL-4 R/B 2.3 01:10:05 10° WNW 01:14:55 71° SSW 01:19:35 10° SE
AQUA 4.2 01:10:30 10° NNE 01:15:14 58° E 01:18:24 20° S
STARLINK-64 3.2 01:14:12 35° SW 01:15:34 71° SSE 01:19:08 10° ENE
USA 229 DEB 3.8 01:09:29 10° NW 01:16:46 78° SW 01:24:23 10° SSE
USA 229 3.8 01:09:36 10° NW 01:16:53 78° SW 01:24:29 10° SSE
NOSS 3-1 (C) 4.0 01:10:08 10° NW 01:17:39 73° SW 01:26:16 10° SSE
STARLINK-1287 4.0 01:16:12 30° SSW 01:17:51 48° SE 01:21:51 10° ENE
NOSS 2-1 (D) 3.1 01:16:50 34° SSW 01:18:05 61° SE 01:21:39 10° NE
NPP 3.7 01:13:47 10° NNE 01:19:12 77° ESE 01:22:54 21° S
ARIANE 5 R/B 4.4 01:15:50 10° NE 01:19:45 22° E 01:23:37 10° SE
STARLINK-1207 3.8 01:17:09 17° W 01:19:50 59° NNW 01:23:33 10° ENE
Cosmos 2184 Rocket 4.0 01:16:27 22° SSW 01:20:32 76° W 01:26:44 10° N
CZ-4C R/B 3.9 01:17:49 10° W 01:22:35 30° NNW 01:28:11 10° NNE
STARLINK-1266 3.9 01:20:25 16° W 01:23:14 56° NNW 01:26:57 10° ENE
BREEZE-M DEB (TANK) 1.4 01:23:13 51° WSW 01:23:38 88° SSE 01:26:24 10° ENE
STARLINK-33 4.3 01:21:41 12° W 01:24:22 36° NNW 01:27:18 10° NE
Cosmos 1892 3.5 01:21:53 18° SSE 01:24:24 45° E 01:28:02 10° NNE
NOSS 3-1 (A) 4.1 01:18:18 10° NW 01:25:50 89° SW 01:34:30 10° SE
STARLINK-1299 3.7 01:24:05 27° SW 01:26:17 64° SE 01:30:31 10° ENE
STARLINK-1284 4.0 01:23:40 15° W 01:26:39 54° NNW 01:30:21 10° ENE
STARLINK-1302 3.8 01:25:46 27° SSW 01:27:46 56° SE 01:31:50 10° ENE
STARLINK-26 4.5 01:24:36 10° W 01:27:51 38° NNW 01:31:07 10° NE
STARLINK-1320 4.5 01:24:53 10° NW 01:27:51 38° NNE 01:30:48 10° E
STARLINK-1322 4.5 01:25:14 10° NW 01:28:12 38° NNE 01:31:09 10° E
BREEZE-M DEB (TANK) 1.9 01:25:53 10° WNW 01:28:16 51° N 01:30:47 10° E
STARLINK-1324 4.4 01:25:33 10° NW 01:28:31 38° NNE 01:31:28 10° E
Cosmos 1610 Rocket 4.5 01:24:10 19° S 01:28:48 87° E 01:35:04 10° N
STARLINK-1294 4.4 01:25:51 10° NW 01:28:49 38° NNE 01:31:48 10° E
STARLINK-1261 4.4 01:26:14 10° NW 01:29:13 38° NNE 01:32:10 10° E
STARLINK-1325 4.4 01:26:36 10° NW 01:29:33 38° NNE 01:32:31 10° E
STARLINK-1333 4.4 01:26:58 10° NW 01:29:56 38° NNE 01:32:53 10° E
STARLINK-1258 4.0 01:26:59 14° W 01:30:06 52° NNW 01:33:47 10° ENE
STARLINK-1334 4.4 01:27:15 10° NW 01:30:13 38° NNE 01:33:10 10° E
Cosmos 1869 3.1 01:26:32 10° N 01:30:25 82° W 01:33:00 20° S
STARLINK-1326 4.4 01:27:35 10° NW 01:30:32 39° NNE 01:33:29 10° E
STARLINK-1323 4.4 01:27:57 10° NW 01:30:55 39° NNE 01:33:53 10° E
STARLINK-1349 4.4 01:28:15 10° NW 01:31:13 39° NNE 01:34:11 10° E
STARLINK-1336 4.4 01:28:34 10° NW 01:31:32 39° NNE 01:34:31 10° E
STARLINK-1331 4.4 01:28:57 10° NW 01:31:56 39° NNE 01:34:54 10° E
STARLINK-1344 4.4 01:29:15 10° NW 01:32:14 39° NNE 01:35:12 10° E
STARLINK-1343 4.4 01:29:38 10° NW 01:32:36 39° NNE 01:35:35 10° E
STARLINK-1273 3.7 01:30:32 26° SW 01:32:43 60° SE 01:36:49 10° ENE
STARLINK-1346 4.4 01:29:54 10° NW 01:32:55 40° NNE 01:35:56 10° E
STARLINK-1328 4.3 01:30:21 10° NW 01:33:20 40° NNE 01:36:19 10° E
STARLINK-1292 4.1 01:30:17 13° W 01:33:32 51° NNW 01:37:13 10° ENE
STARLINK-1354 4.3 01:30:38 10° NW 01:33:38 40° NNE 01:36:36 10° E
Cosmos 2322 Rocket 2.4 01:29:42 20° SSW 01:33:39 68° ESE 01:39:14 10° NNE
STARLINK-1347 4.3 01:30:56 10° NW 01:33:55 40° NNE 01:36:53 10° E
STARLINK-1357 4.3 01:31:21 10° NW 01:34:21 40° NNE 01:37:19 10° E
STARLINK-1335 4.3 01:31:39 10° NW 01:34:38 40° NNE 01:37:36 10° E
STARLINK-1327 4.3 01:32:00 10° NW 01:34:59 40° NNE 01:37:58 10° E
STARLINK-1340 4.3 01:32:18 10° NW 01:35:17 40° NNE 01:38:15 10° E
In-Cosmos 22 Rocket 4.4 01:31:02 16° S 01:35:31 71° E 01:40:58 10° NNE
STARLINK-1356 4.3 01:32:41 10° NW 01:35:40 41° NNE 01:38:39 10° E
STARLINK-1345 4.3 01:32:59 10° NW 01:35:58 41° NNE 01:38:57 10° E
STARLINK-1355 4.3 01:33:20 10° NW 01:36:20 41° NNE 01:39:19 10° E
STARLINK-1321 4.3 01:33:41 10° NW 01:36:41 41° NNE 01:39:40 10° E
STARLINK-1358 4.3 01:34:04 10° NW 01:37:04 41° NNE 01:40:03 10° E
STARLINK-1332 4.3 01:34:22 10° NW 01:37:22 41° NNE 01:40:21 10° E
STARLINK-1288 3.7 01:35:19 24° SW 01:37:42 65° SE 01:41:48 10° ENE
STARLINK-1348 4.2 01:34:42 10° NW 01:37:42 42° NNE 01:40:42 10° E
STARLINK-61 3.8 01:35:51 25° SSW 01:37:48 50° SE 01:41:37 10° ENE
STARLINK-1330 4.2 01:35:01 10° NW 01:38:02 42° NNE 01:41:01 10° E
STARLINK-1363 4.2 01:35:21 10° NW 01:38:22 42° NNE 01:41:21 10° E
STARLINK-1337 4.2 01:35:44 10° NW 01:38:44 42° NNE 01:41:44 10° E
STARLINK-1342 4.2 01:36:03 10° NW 01:39:03 42° NNE 01:42:03 10° E
STARLINK-1268 4.2 01:36:29 11° W 01:39:15 38° NNW 01:42:11 10° NE
STARLINK-1364 4.2 01:36:23 10° NW 01:39:24 42° NNE 01:42:23 10° E
STARLINK-1376 4.2 01:36:43 10° NW 01:39:44 42° NNE 01:42:44 10° E
STARLINK-1360 4.2 01:37:04 10° NW 01:40:04 43° NNE 01:43:05 10° E
STARLINK-1361 4.2 01:37:25 10° NW 01:40:25 43° NNE 01:43:25 10° E
STARLINK-1289 4.2 01:36:51 10° W 01:40:25 47° NNW 01:44:05 10° ENE
STARLINK-1367 4.2 01:37:40 10° NW 01:40:43 44° NNE 01:43:45 10° E
STARLINK-1366 4.2 01:38:03 10° NW 01:41:04 43° NNE 01:44:04 10° E
Resurs 1-4 Rocket 2.3 01:35:52 10° N 01:41:06 61° WNW 01:44:54 19° SW
STARLINK-1301 4.3 01:38:41 10° W 01:42:25 47° NNW 01:46:10 10° ENE
STARLINK-1308 3.6 01:40:08 22° SW 01:42:43 71° SE 01:46:51 10° ENE
Cosmos 1076 Rocket 3.6 01:39:51 17° S 01:43:09 76° E 01:47:31 10° NNE
Cosmos 1400 Rocket 4.4 01:40:12 10° NW 01:43:18 21° W 01:44:45 17° WSW
STARLINK-1303 4.3 01:40:17 10° W 01:43:55 46° NNW 01:47:34 10° ENE
STARLINK-1316 4.3 01:41:36 10° W 01:44:32 36° NNW 01:47:29 10° NE
Cosmos 1125 Rocket 3.9 01:40:01 10° NW 01:44:57 44° WSW 01:48:54 15° S
Cosmos 2151 4.4 01:41:09 10° SSE 01:45:00 34° E 01:48:54 10° NNE
STARLINK-1257 4.3 01:42:29 10° W 01:45:26 36° NNW 01:48:22 10° NE
STARLINK-1256 4.3 01:43:29 10° W 01:46:24 36° NNW 01:49:20 10° NE
STARLINK-58 4.0 01:44:00 12° W 01:46:48 43° NNW 01:49:52 10° NE
H-2A R/B 4.1 01:43:25 10° SE 01:47:17 30° ENE 01:51:13 10° N
STARLINK-1213 4.3 01:44:22 10° W 01:47:17 35° NNW 01:50:13 10° NE
STARLINK-1312 4.4 01:43:48 10° W 01:47:26 45° NNW 01:51:05 10° ENE
STARLINK-1263 4.3 01:45:16 10° W 01:48:11 35° NNW 01:51:06 10° NE
STARLINK-52 2.8 01:45:27 10° WNW 01:48:39 77° SSW 01:51:51 10° SE
STARLINK-1259 4.4 01:46:13 10° W 01:49:07 35° NNW 01:52:02 10° NE
STARLINK-1265 4.4 01:46:35 10° W 01:49:31 35° NNW 01:52:29 10° NE
STARLINK-1285 4.4 01:47:06 10° W 01:50:00 35° NNW 01:52:55 10° NE
STARLINK-1296 4.4 01:48:55 10° W 01:51:50 34° NNW 01:54:44 10° NE
Cosmos 1408 3.1 01:49:31 14° S 01:52:36 58° E 01:56:14 10° NNE
STARLINK-1304 3.6 01:49:41 19° SW 01:52:38 80° SSE 01:56:48 10° ENE
STARLINK-1260 4.4 01:49:49 10° W 01:52:44 34° NNW 01:55:38 10° NE
STARLINK-1318 4.4 01:50:44 10° W 01:53:38 34° NNW 01:56:33 10° NE
STARLINK-1275 4.4 01:51:39 10° W 01:54:33 34° NNW 01:57:27 10° NE
Cosmos 2154 Rocket 4.1 01:49:51 16° SSW 01:54:53 65° WNW 02:01:05 10° N
STARLINK-1309 4.4 01:52:33 10° W 01:55:26 33° NNW 01:58:20 10° NE
STARLINK-1282 4.5 01:53:27 10° W 01:56:20 33° NNW 01:59:14 10° NE
STARLINK-1371 4.5 01:52:46 10° WNW 01:56:39 50° NNE 02:00:30 10° E
GEOS 3 Rocket 3.6 01:51:36 10° SSE 01:56:43 61° SW 02:01:58 10° NW
STARLINK-48 3.9 01:53:48 12° WSW 01:57:22 59° NNW 02:01:14 10° ENE
STARLINK-39 4.5 01:56:10 17° S 01:58:13 29° SE 02:01:26 10° ENE
STARLINK-1278 3.7 01:55:21 15° WSW 01:58:49 85° NNW 02:03:06 10° ENE
STARLINK-1298 4.5 01:56:09 10° W 01:59:01 32° NNW 02:01:54 10° NE
Cosmos 1825 3.1 01:55:38 10° SSE 01:59:13 45° E 02:02:50 10° NNE
STARLINK-31 4.4 01:57:45 17° S 01:59:53 30° SE 02:03:07 10° ENE
SL-16 R/B 3.2 01:55:29 15° SSW 01:59:55 36° W 02:05:35 10° NNW
STARLINK-1280 3.7 01:57:08 15° WSW 02:00:39 84° NNW 02:04:56 10° ENE
STARLINK-1341 4.4 01:57:10 10° WNW 02:01:03 52° NNE 02:04:56 10° E
STARLINK-69 4.3 01:59:20 17° SSW 02:01:30 33° SE 02:04:47 10° ENE
SL-08 R/B 3.4 01:57:03 10° SSE 02:01:39 79° ENE 02:06:17 10° NNW
STARLINK-21 4.3 02:00:55 17° SSW 02:03:09 33° SE 02:06:26 10° ENE
IRS-P3 4.2 01:59:16 10° NNE 02:04:37 79° ESE 02:09:52 10° SSW
STARLINK-45 4.2 02:02:35 17° SSW 02:04:54 36° SE 02:08:16 10° ENE
STARLINK-1374 4.3 02:01:38 10° WNW 02:05:35 55° NNE 02:09:30 10° E
Cosmos 1844 Rocket 3.0 01:59:58 10° NNW 02:05:36 70° ENE 02:11:09 10° SE
NOSS 2-1 (E) 3.6 02:04:58 15° WSW 02:07:34 49° NW 02:11:15 10° NNE
STARLINK-76 4.2 02:05:36 16° SSW 02:08:00 36° SE 02:11:22 10° ENE
STARLINK-70 4.1 02:05:59 16° SSW 02:08:27 38° SE 02:11:53 10° ENE
SL-16 R/B 2.5 02:04:36 15° SW 02:09:18 58° WNW 02:14:56 10° NNE
STARLINK-1286 3.7 02:05:37 13° WSW 02:09:18 81° NNW 02:13:29 10° ENE
STARLINK-23 4.2 02:07:11 16° SSW 02:09:38 37° SE 02:13:01 10° ENE
STARLINK-1339 4.2 02:05:47 10° WNW 02:09:43 57° NNE 02:13:37 10° E
STARLINK-32 4.1 02:08:37 16° SSW 02:11:05 37° SE 02:14:26 10° ENE
CZ-2D R/B 3.0 02:07:24 10° N 02:12:06 35° WNW 02:16:21 12° SW
STARLINK-1281 3.7 02:08:48 13° WSW 02:12:32 80° NNW 02:16:42 10° ENE
STARLINK-40 4.1 02:10:18 16° SSW 02:12:52 39° SE 02:16:17 10° ENE
Cosmos 2221 3.7 02:09:34 10° NNW 02:13:17 27° W 02:16:17 14° SW
COSMOS 2428 4.5 02:09:28 10° SSE 02:14:04 26° ESE 02:18:39 10° NE
STARLINK-1377 4.2 02:10:19 10° WNW 02:14:17 60° NNE 02:18:15 10° ESE
STARLINK-44 4.0 02:11:49 15° SSW 02:14:26 40° SE 02:17:52 10° ENE
STARLINK-1029 4.2 02:11:59 10° W 02:14:57 37° NNW 02:17:57 10° NE
STARLINK-34 4.5 02:13:03 10° W 02:15:52 32° NNW 02:18:41 10° NE
Cosmos 773 Rocket 4.3 02:11:02 10° S 02:16:13 69° ESE 02:21:30 10° NNE
STARLINK-37 3.9 02:13:33 15° SSW 02:16:15 44° SE 02:19:44 10° ENE
STARLINK-60 4.3 02:13:56 10° W 02:16:20 20° SW 02:18:44 10° S
STARLINK-1310 3.7 02:13:35 11° WSW 02:17:32 75° NNW 02:21:41 10° ENE
STARLINK-36 3.9 02:14:56 15° SSW 02:17:41 42° SE 02:21:08 10° ENE
FALCON 9 DEB 3.0 02:14:32 10° WNW 02:17:58 70° SSW 02:21:25 10° SE
STARLINK-1353 4.1 02:14:39 10° WNW 02:18:38 63° NNE 02:22:38 10° ESE
Cosmos 1315 Rocket 4.2 02:16:00 10° NW 02:19:00 21° W 02:21:25 13° SW
STARLINK-63 3.8 02:18:10 14° SW 02:21:02 47° SE 02:24:31 10° ENE
CBERS-1 4.4 02:16:52 10° N 02:21:51 53° WNW 02:26:39 11° SW
STARLINK-35 3.8 02:19:32 14° SW 02:22:23 46° SE 02:25:50 10° ENE
STARLINK-1319 3.8 02:18:21 10° WSW 02:22:30 71° NNW 02:26:39 10° ENE
STARLINK-1375 4.0 02:19:02 10° WNW 02:23:02 66° NNE 02:27:02 10° ESE
STARLINK-51 3.7 02:21:14 13° SW 02:24:11 48° SE 02:27:41 10° ENE
STARLINK-1028 4.4 02:21:25 12° SSW 02:24:54 40° SE 02:28:48 10° ENE
Cosmos 2366 rocket 4.2 02:19:07 10° S 02:25:20 76° E 02:31:40 10° NNE
STARLINK-30 3.7 02:22:49 13° SW 02:25:51 49° SE 02:29:23 10° ENE
STARLINK-72 3.7 02:24:13 13° SW 02:27:14 50° SE 02:30:43 10° ENE
STARLINK-1350 3.9 02:23:22 10° WNW 02:27:24 69° NNE 02:31:24 10° ESE
STARLINK-1277 3.9 02:23:22 10° WSW 02:27:29 67° NNW 02:31:38 10° ENE
Shenzhou-11 Module 2.5 02:26:47 14° WSW 02:28:26 26° S 02:30:34 10° SE
STARLINK-1021 4.3 02:26:14 11° SSW 02:29:54 43° SE 02:33:50 10° ENE
Cosmos 2058 4.0 02:27:00 12° SW 02:30:29 32° WNW 02:34:18 10° N
STARLINK-59 3.5 02:27:25 12° SW 02:30:35 56° SE 02:34:05 10° ENE
Cosmos 1933 4.2 02:26:40 10° N 02:30:38 53° ENE 02:34:35 10° SSE
Cosmos 2360 Rocket 2.2 02:25:44 10° SSW 02:31:18 83° WNW 02:36:59 10° NNE
STARLINK-1352 3.8 02:27:33 10° WNW 02:31:34 73° NNE 02:35:34 10° ESE
STARLINK-1010 4.2 02:28:17 11° SW 02:32:08 47° SE 02:36:13 10° ENE
STARLINK-56 3.6 02:29:04 12° SW 02:32:21 56° SE 02:35:55 10° ENE
STARLINK-1276 4.0 02:28:23 10° WSW 02:32:30 64° NNW 02:36:38 10° ENE
STARLINK-73 3.5 02:30:38 11° SW 02:33:58 57° SE 02:37:32 10° ENE
Cosmos 1328 Rocket 4.0 02:29:48 10° N 02:34:12 66° E 02:38:32 10° SSE
STARLINK-1019 4.2 02:30:59 11° SW 02:34:49 46° SE 02:38:48 10° ENE
STARLINK-38 3.5 02:32:12 11° SW 02:35:35 59° SE 02:39:10 10° ENE
STARLINK-1368 3.7 02:32:14 10° WNW 02:36:17 77° NNE 02:40:18 10° ESE
STARLINK-65 3.5 02:33:46 11° SW 02:37:13 61° SE 02:40:49 10° ENE
STARLINK-1305 4.1 02:33:22 10° WSW 02:37:28 61° NNW 02:41:35 10° ENE
STARLINK-68 3.4 02:34:23 11° SW 02:37:55 66° SSE 02:41:33 10° ENE
STARLINK-1306 4.1 02:34:00 10° WSW 02:38:10 59° NNW 02:42:20 10° ENE
STARLINK-53 3.4 02:35:24 10° SW 02:38:56 66° SSE 02:42:32 10° ENE
STARLINK-1012 4.1 02:35:47 10° SW 02:39:47 50° SE 02:43:49 10° ENE
Cosmos 1980 Rocket 4.3 02:36:46 10° WNW 02:40:09 16° NW 02:43:34 10° N
STARLINK-1369 3.7 02:36:41 10° WNW 02:40:43 81° NNE 02:44:45 10° ESE
STARLINK-50 3.6 02:37:27 10° SW 02:41:12 63° SE 02:44:59 10° ENE
SL-24 DEB 4.3 02:37:21 10° N 02:41:56 67° W 02:46:29 10° SSW
STARLINK-1262 4.1 02:38:24 10° WSW 02:42:30 58° NNW 02:46:36 10° ENE
Cosmos 2333 Rocket 2.9 02:39:23 10° S 02:44:50 52° ESE 02:50:20 10° NE
STARLINK-1372 3.6 02:40:51 10° WNW 02:44:52 86° NNE 02:48:50 10° ESE
STARLINK-71 3.6 02:41:57 10° SW 02:45:57 71° SSE 02:49:59 10° ENE
Meteor 1-28 Rocket 3.5 02:42:34 10° S 02:46:12 48° W 02:49:51 10° NNW
Landsat 5 3.7 02:42:57 10° SSE 02:47:28 87° ENE 02:51:56 10° NNW
STARLINK-1300 4.2 02:43:24 10° W 02:47:29 55° NNW 02:51:34 10° ENE
Cosmos 2219 Rocket 2.9 02:43:33 10° S 02:48:56 52° ESE 02:54:21 10° NE
STARLINK-29 4.2 02:46:43 10° W 02:49:11 20° SW 02:51:37 10° S
Cosmos 1727 Rocket 4.1 02:43:10 10° N 02:49:23 90° W 02:55:33 10° S
STARLINK-1378 3.6 02:45:34 10° WNW 02:49:37 89° S 02:53:38 10° ESE
STARLINK-1026 3.9 02:45:38 10° SW 02:49:42 59° SE 02:53:47 10° ENE
ADEOS II 2.8 02:45:00 10° N 02:49:53 40° WNW 02:54:45 10° SW
Cosmos 2322 3.9 02:44:35 10° SSW 02:50:18 80° ESE 02:56:03 10° NNE
STARLINK-1295 4.3 02:48:24 10° W 02:52:28 53° NNW 02:56:32 10° ENE
IDEFIX/ARIANE 42P 2.8 02:48:16 10° NNE 02:53:35 80° ESE 02:58:50 10° SSW
Cosmos 1782 4.4 02:49:53 10° N 02:53:41 39° ENE 02:57:27 10° SE
Cosmos 2263 Rocket 4.0 02:52:17 10° WNW 02:53:56 11° W 02:55:35 10° WSW
SL-4 R/B 3.7 02:50:47 10° W 02:54:01 18° SW 02:57:09 10° S
STARLINK-1379 3.5 02:50:04 10° WNW 02:54:07 85° SSW 02:58:09 10° ESE
STARLINK-1013 3.8 02:50:36 10° SW 02:54:41 63° SE 02:58:48 10° ENE
Cosmos 1606 2.7 02:51:02 10° NNW 02:54:46 64° W 02:58:31 10° S
